{"data":{"norad_id":67494,"intl_designator":"2026-012B","name":"STARLINK-36396","alt_names":[],"object_type":"PAYLOAD","status":"ACTIVE","operator":null,"country":"US","launch_date":"2026-01-18","launch_site_code":"AFETR","launch_vehicle":null,"mission":null,"orbit_class":"UNKNOWN","rcs_meters":null,"size_class":null,"mass_kg":null,"dimensions":null,"purposes":["comms"],"wikipedia_slug":null,"has_3d_model":false,"image_url":null,"decayed_at":null,"tle_current":{"epoch":"2026-05-24T14:58:20.333280Z","epoch_age_seconds":114329,"freshness":"FRESH","line1":"1 67494U 26012B   26144.62384645  .00011752  00000+0  43582-3 0  9996","line2":"2 67494  43.0006 245.7112 0001463 274.1389  85.9296 15.27585939 19378","mean_motion":15.27585939,"eccentricity":0.0001463,"inclination_deg":43.0006,"raan_deg":245.7112,"arg_perigee_deg":274.1389,"mean_anomaly_deg":85.9296,"bstar":0.00043582,"rev_number":1937,"period_min":94.266382220215,"perigee_km":482.02752367059,"apogee_km":484.03510151886,"semimajor_km":6861.1683125947,"source":"CELESTRAK","updated_at":"2026-05-25T13:38:21.566336Z"}}}